User: anonymous   Login
Location: Prairie State College
(41.5244°N, 87.6382°W)
Time: 13:08:35
(UTC-06:00)
Language:

Cosmos 1140 Rocket - Orbit

View from above orbital plane
View from above orbital plane
View from above satellite
View from above satellite

Ground track
Ground track

The orbit data is extracted from the following two-line orbital elements,

1 11574U 79089B   17347.91659110 +.00000045 +00000-0 +22316-4 0  9992
2 11574 074.0700 247.2885 0014768 108.1081 252.1685 14.40654036002845
Epoch (UTC): 13 December 2017 21:59:53
Eccentricity: 0.0014768
inclination: 74.0700°
perigee height: 746 km
apogee height: 767 km
right ascension of ascending node: 247.2885°
argument of perigee: 108.1081°
revolutions per day: 14.40654036
mean anomaly at epoch: 252.1685°
orbit number at epoch: 284

The dashed part of the orbit path shows where the satellite is in the earth's shadow,  

DLR